Weather History for Bradford, PA

Change the Weather History Date:

Monday, September 9, 2013

  Actual Average Record
Temperature  
Mean Temperature 56 °F 59 °F  
Max Temperature 73 °F 71 °F 88 °F (1959)
Min Temperature 39 °F 48 °F 31 °F (1979)
Degree Days  
Heating Degree Days 9 3  
Month to date heating degree days 53 20  
Since 1 July heating degree days 189 173  
Cooling Degree Days 0 1  
Month to date cooling degree days 8 9  
Year to date cooling degree days 303 186  
Growing Degree Days 6 (Base 50)    
Moisture  
Dew Point 50 °F    
Average Humidity 71    
Maximum Humidity 90    
Minimum Humidity 52    
Precipitation  
Precipitation 0.19 in 0.13 in 1.51 in (1990)
Month to date precipitation 1.06 1.16  
Year to date precipitation 22.47 31.11  
Sea Level Pressure  
Sea Level Pressure 30.13 in    
Wind  
Wind Speed 6 mph (SSE)    
Max Wind Speed 13 mph    
Max Gust Speed 18 mph    
Visibility 7 miles    
Events Rain    
T = Trace of Precipitation, MM = Missing Value Source: NWS Daily Summary

Daily Weather History Graph

Daily Weather History Graph

Search for Another Location

Airport:

Trip Planner

Search our weather history database for the weather conditions in past years. The results will help you decide how hot, cold, wet, or windy it might be!

Date:

Astronomy

Sep. 09, 2013 Rise Set
Actual Time 6:48 AM EDT 7:33 PM EDT
Civil Twilight 6:20 AM EDT 8:02 PM EDT
Nautical Twilight 5:47 AM EDT 8:35 PM EDT
Astronomical Twilight 5:12 AM EDT 9:09 PM EDT
Moon 11:13 AM EDT (9/9) 9:44 PM EDT (9/9)
Length of Visible Light 13h 41m
Length of Day
12h 45m
Waxing Crescent, 19% of the Moon is Illuminated
Sep 9
Waxing Crescent
Sep 12
First Quarter
Sep 19
Full
Sep 26
Last Quarter
Oct 4
New

Hourly Weather History & Observations

Time (EDT) Temp. Windchill Dew Point Humidity Pressure Visibility Wind Dir Wind Speed Gust Speed Precip Events Conditions
1:53 AM 44.1 °F - 39.0 °F 82% 30.14 in 7.0 mi Calm Calm - N/A   Clear
2:06 AM 44.1 °F - 39.0 °F 82% 30.15 in 1.8 mi Calm Calm - N/A   Haze
2:16 AM 42.1 °F 40.2 °F 37.0 °F 82% 30.15 in 3.0 mi SSE 3.5 mph - N/A   Haze
2:53 AM 42.1 °F 40.2 °F 37.0 °F 82% 30.13 in 10.0 mi SSE 3.5 mph - N/A   Clear
3:53 AM 41.0 °F 39.0 °F 37.0 °F 86% 30.14 in 10.0 mi SSE 3.5 mph - N/A   Clear
4:13 AM 39.0 °F 35.7 °F 36.0 °F 89% 30.14 in 1.5 mi SSE 4.6 mph - N/A   Clear
4:23 AM 39.9 °F 36.7 °F 36.0 °F 86% 30.15 in 3.0 mi SSE 4.6 mph - N/A   Clear
4:53 AM 39.0 °F 35.7 °F 36.0 °F 89% 30.15 in 10.0 mi SE 4.6 mph - N/A   Clear
5:53 AM 39.0 °F 36.8 °F 35.1 °F 86% 30.16 in 10.0 mi SE 3.5 mph - N/A   Clear
6:53 AM 43.0 °F 40.3 °F 37.9 °F 82% 30.16 in 10.0 mi SE 4.6 mph - N/A   Clear
7:53 AM 45.0 °F 42.6 °F 39.9 °F 82% 30.17 in 10.0 mi SE 4.6 mph - N/A   Clear
8:53 AM 51.1 °F - 42.1 °F 71% 30.17 in 10.0 mi ESE 5.8 mph - N/A   Scattered Clouds
9:53 AM 57.9 °F - 42.1 °F 56% 30.16 in 10.0 mi SE 10.4 mph - N/A   Clear
10:53 AM 62.1 °F - 45.0 °F 53% 30.16 in 10.0 mi SSE 9.2 mph - N/A   Clear
11:53 AM 66.9 °F - 48.0 °F 51% 30.14 in 10.0 mi Variable 6.9 mph - N/A   Clear
12:53 PM 70.0 °F - 52.0 °F 53% 30.13 in 10.0 mi SSE 9.2 mph - N/A   Scattered Clouds
1:53 PM 70.0 °F - 53.1 °F 55% 30.14 in 10.0 mi SSW 8.1 mph - N/A   Scattered Clouds
2:53 PM 71.1 °F - 55.0 °F 57% 30.11 in 10.0 mi SSE 9.2 mph - N/A   Mostly Cloudy
3:03 PM 72.0 °F - 55.0 °F 55% 30.11 in 10.0 mi Variable 4.6 mph - N/A   Mostly Cloudy
3:22 PM 71.1 °F - 55.0 °F 57% 30.12 in 10.0 mi South 9.2 mph - N/A   Overcast
3:29 PM 71.1 °F - 55.9 °F 59% 30.11 in 10.0 mi South 8.1 mph - N/A   Overcast
3:53 PM 72.0 °F - 57.0 °F 59% 30.10 in 10.0 mi South 9.2 mph - N/A   Overcast
4:01 PM 72.0 °F - 57.0 °F 59% 30.10 in 10.0 mi Variable 6.9 mph - N/A   Overcast
4:53 PM 68.0 °F - 57.9 °F 70% 30.10 in 2.5 mi South 9.2 mph - 0.02 in Rain Light Rain
5:02 PM 66.0 °F - 59.0 °F 78% 30.11 in 7.0 mi South 4.6 mph - 0.00 in Rain Light Rain
5:46 PM 64.0 °F - 57.9 °F 80% 30.10 in 9.0 mi SE 8.1 mph - 0.00 in   Mostly Cloudy
5:53 PM 64.0 °F - 57.9 °F 80% 30.11 in 9.0 mi South 5.8 mph - 0.00 in   Mostly Cloudy
6:53 PM 64.0 °F - 57.0 °F 78% 30.10 in 6.0 mi SSE 6.9 mph - 0.00 in Rain Light Rain
7:01 PM 63.0 °F - 57.0 °F 81% 30.10 in 2.0 mi SSE 8.1 mph - 0.03 in Rain Rain
7:21 PM 62.1 °F - 57.9 °F 86% 30.10 in 1.8 mi SSE 8.1 mph - 0.11 in Rain Heavy Rain
7:26 PM 62.1 °F - 57.9 °F 86% 30.10 in 2.0 mi SSE 6.9 mph - 0.13 in Rain Heavy Rain
7:44 PM 62.1 °F - 57.9 °F 86% 30.11 in 4.0 mi SSE 5.8 mph - 0.16 in Rain Light Rain
7:53 PM 62.1 °F - 57.9 °F 86% 30.11 in 6.0 mi SSE 5.8 mph - 0.16 in Rain Light Rain
8:38 PM 61.0 °F - 57.0 °F 87% 30.12 in 7.0 mi SE 5.8 mph - 0.01 in   Overcast
8:53 PM 61.0 °F - 57.9 °F 90% 30.12 in 6.0 mi SSE 5.8 mph - 0.01 in   Overcast
9:53 PM 61.0 °F - 57.0 °F 87% 30.10 in 8.0 mi SSE 6.9 mph - N/A   Unknown
10:53 PM 61.0 °F - 55.9 °F 83% 30.10 in 8.0 mi SSE 6.9 mph - N/A   Mostly Cloudy
11:53 PM 60.1 °F - 55.9 °F 86% 30.09 in 7.0 mi SE 5.8 mph - N/A   Partly Cloudy